Retour au catalogue

STARLINK-37898

ActifCommunicationsSSO
NORAD 69705·PAYLOAD·🇺🇸 United States

Lancé Jun 28, 2026 depuis Vandenberg Space Force Base

Loading…

Prochains Passages (prochaines 24 heures)

TLE

FraisSource: CelesTrak SupGP

Époque: Sep 15, 2026, 03:27 UTC

1 69705C 26147B   26258.14423611 -.00064964  00000+0 -20165-2 0  2586
2 69705  97.2821 294.5057 0000902  99.5913  62.9607 15.33475379    15

Suivez STARLINK-37898 en temps réel avec AllMySat

Download on the App Store